GLO1280 SBCF-SBPS

Flight info

Callsign GLO1280
Flight time 1h 0m
Altitude 33000
Route KADOR DCT POSMU DCT OSUNO
Aircraft B738/M-SDFGIKLORWXY/LB1

Departure

Time 2026-05-08 16:09
Airport Tancredo Neves International Airport (SBCF)

Arrival

Time 2026-05-08 17:10
Airport Porto Seguro International Airport (SBPS)
Time Latitude Longitude Altitude Speed Heading
2026-05-08 15:50 -19.62770 -43.96915 2707 ft 0 kts 47°
2026-05-08 16:00 -19.62773 -43.96917 2707 ft 2 kts 47°
2026-05-08 16:00 -19.62785 -43.96927 2705 ft 2 kts 22°
2026-05-08 16:00 -19.62799 -43.96931 2703 ft 2 kts
2026-05-08 16:00 -19.62814 -43.96930 2702 ft 2 kts 346°
2026-05-08 16:01 -19.62825 -43.96927 2701 ft 2 kts 333°
2026-05-08 16:01 -19.62837 -43.96917 2701 ft 2 kts 314°
2026-05-08 16:01 -19.62844 -43.96908 2701 ft 0 kts 302°
2026-05-08 16:04 -19.62829 -43.96938 2701 ft 9 kts 291°
2026-05-08 16:04 -19.62811 -43.97010 2700 ft 10 kts 284°
2026-05-08 16:05 -19.62826 -43.97092 2696 ft 14 kts 232°
2026-05-08 16:05 -19.62801 -43.97174 2694 ft 12 kts 316°
2026-05-08 16:05 -19.62736 -43.97235 2695 ft 11 kts 317°
2026-05-08 16:05 -19.62684 -43.97286 2697 ft 9 kts 317°
2026-05-08 16:06 -19.62643 -43.97326 2698 ft 6 kts 318°
2026-05-08 16:06 -19.62612 -43.97355 2699 ft 6 kts 318°
2026-05-08 16:06 -19.62556 -43.97408 2700 ft 14 kts 318°
2026-05-08 16:06 -19.62483 -43.97476 2701 ft 14 kts 319°
2026-05-08 16:07 -19.62403 -43.97548 2699 ft 17 kts 320°
2026-05-08 16:07 -19.62288 -43.97651 2695 ft 20 kts 303°
2026-05-08 16:07 -19.62351 -43.97773 2681 ft 23 kts 217°
2026-05-08 16:07 -19.62417 -43.97761 2682 ft 0 kts 134°
2026-05-08 16:08 -19.62492 -43.97687 2687 ft 47 kts 139°
2026-05-08 16:08 -19.62929 -43.97281 2682 ft 117 kts 139°
2026-05-08 16:09 -19.63705 -43.96560 2691 ft 174 kts 137°
2026-05-08 16:09 -19.64364 -43.95956 2766 ft 199 kts 139°
2026-05-08 16:09 -19.65756 -43.94765 3966 ft 184 kts 139°
2026-05-08 16:09 -19.66756 -43.93834 4249 ft 195 kts 134°
2026-05-08 16:10 -19.67756 -43.92844 4524 ft 205 kts 135°
2026-05-08 16:10 -19.68864 -43.91796 4709 ft 222 kts 137°
2026-05-08 16:10 -19.70006 -43.90615 4958 ft 234 kts 122°
2026-05-08 16:10 -19.70538 -43.88982 5146 ft 244 kts 88°
2026-05-08 16:11 -19.70157 -43.87221 5411 ft 252 kts 60°
2026-05-08 16:11 -19.69237 -43.85595 5707 ft 262 kts 56°
2026-05-08 16:11 -19.68248 -43.83898 6157 ft 275 kts 57°
2026-05-08 16:11 -19.67295 -43.82180 6955 ft 274 kts 58°
2026-05-08 16:12 -19.66656 -43.81009 7452 ft 275 kts 58°
2026-05-08 16:12 -19.65375 -43.78663 8398 ft 278 kts 58°
2026-05-08 16:12 -19.64398 -43.76881 8947 ft 283 kts 58°
2026-05-08 16:12 -19.63406 -43.75080 9178 ft 286 kts 57°
2026-05-08 16:13 -19.62403 -43.73262 9185 ft 283 kts 57°
2026-05-08 16:13 -19.61318 -43.71510 9208 ft 287 kts 51°
2026-05-08 16:13 -19.60062 -43.69850 9812 ft 291 kts 48°
2026-05-08 16:13 -19.58742 -43.68203 10139 ft 289 kts 48°
2026-05-08 16:14 -19.57444 -43.66581 10185 ft 288 kts 49°
2026-05-08 16:14 -19.56172 -43.64971 10195 ft 284 kts 49°
2026-05-08 16:14 -19.55330 -43.63894 10186 ft 285 kts 49°
2026-05-08 16:14 -19.53643 -43.61722 10180 ft 284 kts 49°
2026-05-08 16:15 -19.52385 -43.60099 10182 ft 284 kts 49°
2026-05-08 16:15 -19.51131 -43.58478 10193 ft 286 kts 50°
2026-05-08 16:15 -19.49847 -43.56752 10370 ft 306 kts 51°
2026-05-08 16:15 -19.48531 -43.54932 10734 ft 321 kts 51°
2026-05-08 16:16 -19.47147 -43.53007 11109 ft 335 kts 51°
2026-05-08 16:16 -19.45730 -43.51034 11709 ft 340 kts 51°
2026-05-08 16:16 -19.44775 -43.49710 12183 ft 342 kts 51°
2026-05-08 16:16 -19.42819 -43.47010 13066 ft 346 kts 52°
2026-05-08 16:17 -19.41359 -43.45000 13735 ft 350 kts 52°
2026-05-08 16:17 -19.40365 -43.43631 14124 ft 354 kts 52°
2026-05-08 16:17 -19.38361 -43.40873 14989 ft 359 kts 52°
2026-05-08 16:17 -19.36829 -43.38767 15635 ft 363 kts 52°
2026-05-08 16:18 -19.35288 -43.36647 16191 ft 369 kts 52°
2026-05-08 16:18 -19.34222 -43.35182 16628 ft 371 kts 52°
2026-05-08 16:18 -19.32110 -43.32276 17387 ft 377 kts 51°
2026-05-08 16:18 -19.30510 -43.30071 17987 ft 381 kts 52°
2026-05-08 16:19 -19.28884 -43.27829 18518 ft 386 kts 52°
2026-05-08 16:19 -19.27228 -43.25548 19094 ft 390 kts 52°
2026-05-08 16:19 -19.25576 -43.23273 19641 ft 394 kts 52°
2026-05-08 16:19 -19.23909 -43.20980 20208 ft 397 kts 52°
2026-05-08 16:20 -19.22218 -43.18655 20728 ft 401 kts 52°
2026-05-08 16:20 -19.20494 -43.16286 21227 ft 406 kts 52°
2026-05-08 16:20 -19.18776 -43.13926 21751 ft 409 kts 53°
2026-05-08 16:20 -19.17021 -43.11514 22251 ft 413 kts 52°
2026-05-08 16:21 -19.15274 -43.09116 22699 ft 418 kts 52°
2026-05-08 16:21 -19.13473 -43.06641 23144 ft 423 kts 52°
2026-05-08 16:21 -19.12273 -43.04994 23428 ft 427 kts 52°
2026-05-08 16:21 -19.09863 -43.01688 24036 ft 432 kts 52°
2026-05-08 16:22 -19.08014 -42.99153 24540 ft 435 kts 52°
2026-05-08 16:22 -19.06785 -42.97470 24849 ft 437 kts 52°
2026-05-08 16:22 -19.04292 -42.94054 25439 ft 442 kts 52°
2026-05-08 16:22 -19.02382 -42.91437 25876 ft 446 kts 52°
2026-05-08 16:23 -19.00482 -42.88835 26278 ft 451 kts 52°
2026-05-08 16:23 -18.99207 -42.87089 26528 ft 454 kts 52°
2026-05-08 16:23 -18.96624 -42.83558 27118 ft 458 kts 52°
2026-05-08 16:23 -18.94668 -42.80882 27702 ft 456 kts 52°
2026-05-08 16:24 -18.92839 -42.78200 28258 ft 456 kts 56°
2026-05-08 16:24 -18.91144 -42.75335 28786 ft 456 kts 59°
2026-05-08 16:24 -18.89596 -42.72445 29249 ft 457 kts 62°
2026-05-08 16:24 -18.88082 -42.69469 29690 ft 458 kts 63°
2026-05-08 16:25 -18.86597 -42.66483 30253 ft 456 kts 63°
2026-05-08 16:25 -18.85130 -42.63516 30746 ft 456 kts 63°
2026-05-08 16:25 -18.83663 -42.60554 31119 ft 457 kts 63°
2026-05-08 16:25 -18.82188 -42.57595 31550 ft 457 kts 63°
2026-05-08 16:26 -18.80696 -42.54616 31939 ft 458 kts 63°
2026-05-08 16:26 -18.79212 -42.51662 32358 ft 458 kts 63°
2026-05-08 16:26 -18.77721 -42.48708 32835 ft 456 kts 63°
2026-05-08 16:26 -18.76225 -42.45749 33154 ft 457 kts 63°
2026-05-08 16:27 -18.73226 -42.39875 33157 ft 453 kts 63°
2026-05-08 16:27 -18.70216 -42.34056 33147 ft 453 kts 62°
2026-05-08 16:28 -18.67687 -42.29180 33135 ft 454 kts 62°
2026-05-08 16:28 -18.64650 -42.23332 33130 ft 454 kts 62°
2026-05-08 16:29 -18.61111 -42.16517 33119 ft 454 kts 62°
2026-05-08 16:29 -18.58103 -42.10726 33110 ft 454 kts 63°
2026-05-08 16:30 -18.55072 -42.04894 33103 ft 454 kts 63°
2026-05-08 16:30 -18.52033 -41.99051 33090 ft 453 kts 63°
2026-05-08 16:31 -18.49017 -41.93260 33087 ft 453 kts 63°
2026-05-08 16:31 -18.45993 -41.87459 33086 ft 454 kts 63°
2026-05-08 16:32 -18.42946 -41.81622 33087 ft 454 kts 63°
2026-05-08 16:32 -18.39928 -41.75841 33088 ft 453 kts 63°
2026-05-08 16:33 -18.37387 -41.70979 33093 ft 452 kts 63°
2026-05-08 16:33 -18.33860 -41.64238 33094 ft 452 kts 63°
2026-05-08 16:34 -18.31327 -41.59401 33098 ft 452 kts 63°
2026-05-08 16:34 -18.27805 -41.52681 33098 ft 451 kts 63°
2026-05-08 16:35 -18.24765 -41.46885 33096 ft 452 kts 63°
2026-05-08 16:35 -18.21728 -41.41103 33100 ft 451 kts 63°
2026-05-08 16:36 -18.19210 -41.36313 33103 ft 453 kts 63°
2026-05-08 16:36 -18.15667 -41.29577 33107 ft 451 kts 63°
2026-05-08 16:37 -18.13108 -41.24716 33110 ft 451 kts 63°
2026-05-08 16:37 -18.09553 -41.17969 33107 ft 451 kts 63°
2026-05-08 16:38 -18.07020 -41.13168 33100 ft 450 kts 63°
2026-05-08 16:38 -18.03989 -41.07427 33095 ft 450 kts 63°
2026-05-08 16:39 -18.00439 -41.00711 33080 ft 450 kts 63°
2026-05-08 16:39 -17.97409 -40.94986 33080 ft 450 kts 63°
2026-05-08 16:40 -17.94875 -40.90199 33078 ft 449 kts 63°
2026-05-08 16:40 -17.91352 -40.83551 33077 ft 448 kts 63°
2026-05-08 16:41 -17.88798 -40.78733 33074 ft 449 kts 63°
2026-05-08 16:42 -17.83744 -40.69212 33066 ft 449 kts 63°
2026-05-08 16:42 -17.81223 -40.64468 33063 ft 450 kts 63°
2026-05-08 16:43 -17.78166 -40.58723 33058 ft 449 kts 63°
2026-05-08 16:43 -17.75111 -40.52988 33056 ft 448 kts 63°
2026-05-08 16:44 -17.72082 -40.47305 32887 ft 440 kts 63°
2026-05-08 16:44 -17.70124 -40.43640 32573 ft 427 kts 63°
2026-05-08 16:44 -17.69170 -40.41854 32318 ft 425 kts 63°
2026-05-08 16:44 -17.67726 -40.39147 31877 ft 430 kts 63°
2026-05-08 16:45 -17.65782 -40.35501 31241 ft 429 kts 63°
2026-05-08 16:45 -17.64797 -40.33654 30915 ft 427 kts 63°
2026-05-08 16:45 -17.62884 -40.30075 30285 ft 421 kts 63°
2026-05-08 16:45 -17.61942 -40.28313 29975 ft 419 kts 63°
2026-05-08 16:46 -17.60509 -40.25634 29490 ft 415 kts 63°
2026-05-08 16:46 -17.59122 -40.23042 29025 ft 411 kts 62°
2026-05-08 16:46 -17.57717 -40.20416 28549 ft 408 kts 62°
2026-05-08 16:46 -17.56342 -40.17848 28080 ft 404 kts 63°
2026-05-08 16:47 -17.54969 -40.15284 27606 ft 401 kts 62°
2026-05-08 16:47 -17.53167 -40.11921 26979 ft 397 kts 63°
2026-05-08 16:47 -17.52270 -40.10247 26664 ft 394 kts 63°
2026-05-08 16:47 -17.50493 -40.06934 26040 ft 390 kts 63°
2026-05-08 16:48 -17.49168 -40.04464 25547 ft 386 kts 63°
2026-05-08 16:48 -17.47877 -40.02059 25102 ft 379 kts 63°
2026-05-08 16:48 -17.47010 -40.00445 24793 ft 374 kts 63°
2026-05-08 16:48 -17.45757 -39.98113 24337 ft 367 kts 63°
2026-05-08 16:49 -17.43980 -39.95121 23741 ft 366 kts 56°
2026-05-08 16:49 -17.42234 -39.93171 23291 ft 372 kts 40°
2026-05-08 16:49 -17.40796 -39.92111 22981 ft 372 kts 33°
2026-05-08 16:49 -17.38567 -39.90801 22525 ft 370 kts 30°
2026-05-08 16:50 -17.35501 -39.89171 21939 ft 367 kts 28°
2026-05-08 16:50 -17.33975 -39.88379 21631 ft 366 kts 28°
2026-05-08 16:50 -17.30955 -39.86804 21020 ft 363 kts 28°
2026-05-08 16:50 -17.29460 -39.86017 20714 ft 361 kts 28°
2026-05-08 16:51 -17.27208 -39.84821 20256 ft 359 kts 29°
2026-05-08 16:51 -17.25008 -39.83644 19800 ft 357 kts 29°
2026-05-08 16:51 -17.22786 -39.82450 19338 ft 355 kts 28°
2026-05-08 16:51 -17.19882 -39.80885 18735 ft 351 kts 29°
2026-05-08 16:52 -17.18449 -39.80110 18427 ft 350 kts 29°
2026-05-08 16:52 -17.15562 -39.78549 17823 ft 346 kts 28°
2026-05-08 16:52 -17.14159 -39.77792 17527 ft 344 kts 28°
2026-05-08 16:52 -17.11341 -39.76268 16902 ft 340 kts 29°
2026-05-08 16:53 -17.07926 -39.74425 16196 ft 321 kts 29°
2026-05-08 16:53 -17.05332 -39.73025 15638 ft 308 kts 28°
2026-05-08 16:53 -17.03455 -39.72013 15245 ft 298 kts 28°
2026-05-08 16:54 -17.02234 -39.71347 15079 ft 292 kts 30°
2026-05-08 16:54 -17.00460 -39.70291 14908 ft 299 kts 32°
2026-05-08 16:54 -16.98069 -39.68762 14402 ft 300 kts 33°
2026-05-08 16:54 -16.96905 -39.68010 14139 ft 294 kts 32°
2026-05-08 16:55 -16.95181 -39.66905 13766 ft 286 kts 32°
2026-05-08 16:55 -16.92895 -39.65457 13249 ft 292 kts 31°
2026-05-08 16:55 -16.91717 -39.64715 12985 ft 294 kts 32°
2026-05-08 16:55 -16.90016 -39.63647 12588 ft 286 kts 32°
2026-05-08 16:56 -16.88311 -39.62577 12207 ft 277 kts 32°
2026-05-08 16:56 -16.86651 -39.61536 11833 ft 282 kts 32°
2026-05-08 16:56 -16.84402 -39.60125 11330 ft 280 kts 32°
2026-05-08 16:56 -16.83288 -39.59427 11077 ft 274 kts 32°
2026-05-08 16:57 -16.81137 -39.58077 10593 ft 271 kts 33°
2026-05-08 16:57 -16.80052 -39.57394 10342 ft 276 kts 33°
2026-05-08 16:57 -16.77889 -39.56038 9981 ft 261 kts 33°
2026-05-08 16:57 -16.76865 -39.55398 9866 ft 252 kts 33°
2026-05-08 16:58 -16.74847 -39.54132 9383 ft 260 kts 33°
2026-05-08 16:58 -16.73807 -39.53448 9144 ft 260 kts 35°
2026-05-08 16:58 -16.72362 -39.52378 8794 ft 252 kts 38°
2026-05-08 16:58 -16.71026 -39.51304 8479 ft 253 kts 39°
2026-05-08 16:59 -16.70096 -39.50545 8251 ft 258 kts 39°
2026-05-08 16:59 -16.68676 -39.49400 7899 ft 255 kts 39°
2026-05-08 16:59 -16.66837 -39.47940 7463 ft 246 kts 39°
2026-05-08 16:59 -16.65451 -39.46843 7141 ft 250 kts 39°
2026-05-08 17:00 -16.64100 -39.45774 6806 ft 239 kts 39°
2026-05-08 17:00 -16.63234 -39.45090 6601 ft 235 kts 39°
2026-05-08 17:00 -16.61930 -39.44060 6287 ft 229 kts 39°
2026-05-08 17:00 -16.60277 -39.42752 5877 ft 221 kts 39°
2026-05-08 17:01 -16.59460 -39.42104 5682 ft 217 kts 39°
2026-05-08 17:01 -16.58263 -39.41157 5401 ft 212 kts 39°
2026-05-08 17:01 -16.56739 -39.39952 5050 ft 202 kts 39°
2026-05-08 17:01 -16.55643 -39.39088 4910 ft 187 kts 39°
2026-05-08 17:02 -16.54972 -39.38558 4863 ft 177 kts 39°
2026-05-08 17:02 -16.54037 -39.37820 4785 ft 162 kts 39°
2026-05-08 17:02 -16.53138 -39.37107 4717 ft 158 kts 40°
2026-05-08 17:02 -16.52264 -39.36414 4659 ft 158 kts 40°
2026-05-08 17:03 -16.51408 -39.35695 4583 ft 156 kts 48°
2026-05-08 17:03 -16.50904 -39.34709 4414 ft 160 kts 77°
2026-05-08 17:03 -16.50700 -39.33582 4221 ft 152 kts 76°
2026-05-08 17:03 -16.50351 -39.32254 3940 ft 135 kts 72°
2026-05-08 17:04 -16.50173 -39.31621 3825 ft 133 kts 73°
2026-05-08 17:04 -16.49923 -39.30693 3666 ft 135 kts 73°
2026-05-08 17:04 -16.49668 -39.29744 3502 ft 136 kts 73°
2026-05-08 17:04 -16.49412 -39.28806 3325 ft 135 kts 73°
2026-05-08 17:05 -16.49150 -39.27858 3193 ft 134 kts 73°
2026-05-08 17:05 -16.48895 -39.26925 3100 ft 134 kts 73°
2026-05-08 17:05 -16.48642 -39.25995 2981 ft 135 kts 74°
2026-05-08 17:05 -16.48393 -39.25047 2869 ft 133 kts 73°
2026-05-08 17:06 -16.48140 -39.24122 2757 ft 134 kts 74°
2026-05-08 17:06 -16.47893 -39.23204 2638 ft 132 kts 74°
2026-05-08 17:06 -16.47643 -39.22271 2520 ft 134 kts 75°
2026-05-08 17:06 -16.47386 -39.21333 2373 ft 133 kts 74°
2026-05-08 17:07 -16.47138 -39.20401 2233 ft 134 kts 75°
2026-05-08 17:07 -16.46887 -39.19463 2100 ft 138 kts 74°
2026-05-08 17:07 -16.46620 -39.18498 1968 ft 138 kts 75°
2026-05-08 17:07 -16.46362 -39.17536 1822 ft 138 kts 74°
2026-05-08 17:08 -16.46100 -39.16561 1679 ft 140 kts 74°
2026-05-08 17:08 -16.45838 -39.15581 1433 ft 139 kts 76°
2026-05-08 17:08 -16.45578 -39.14612 1235 ft 140 kts 76°
2026-05-08 17:08 -16.45320 -39.13646 1049 ft 139 kts 76°
2026-05-08 17:09 -16.45055 -39.12665 933 ft 139 kts 76°
2026-05-08 17:09 -16.44800 -39.11689 719 ft 141 kts 75°
2026-05-08 17:09 -16.44531 -39.10695 497 ft 140 kts 74°
2026-05-08 17:09 -16.44185 -39.09404 260 ft 139 kts 79°
2026-05-08 17:10 -16.44043 -39.08747 169 ft 136 kts 76°
2026-05-08 17:10 -16.43819 -39.07936 160 ft 40 kts 75°
2026-05-08 17:10 -16.43789 -39.07825 158 ft 18 kts 74°
2026-05-08 17:10 -16.43773 -39.07664 156 ft 10 kts 141°
2026-05-08 17:11 -16.43816 -39.07645 156 ft 10 kts 161°
2026-05-08 17:11 -16.43878 -39.07625 156 ft 0 kts 164°